[[{"header":{"parameterUnit":"m.s-1","parameterCategory":1,"la1":30.2991,"la2":30.254,"lo1":-89.0895,"lo2":-89.0444,"dy":0.0017,"dx":0.0017,"nx":28,"ny":28,"refTime":"2024-08-12T09:00:00:Z","depth":0,"parameterNumber":2,"parameterNumberName":"U-component_of_WINDS"},"data":[0,0,0,0,0,0,0,0,0,0,0,0,0,0,0,0,0,0,0,0,0,0,0,0,0,0,0,0,0,0,0,0,0,0,0,0,0,0,0,0,0,0,0,0,0,0,0,0,0,0,0,0,0,0,0,0,0,0,1.9744,1.9745,0,1.9863,1.9864,1.9865,1.9868,1.9867,1.9865,1.9864,1.9989,1.9994,1.9998,0,0,0,0,0,0,0,0,0,0,0,0,0,1.9523,1.9527,1.9744,1.9745,1.9747,1.9862,1.9864,1.9866,1.9868,1.9867,1.9865,1.9863,1.9988,1.9993,1.9999,0,0,0,0,0,0,0,0,0,0,0,0,0,1.9628,1.9529,1.9743,1.9762,1.9765,1.9862,1.9864,1.9866,1.9869,1.9867,1.9864,1.9862,1.9986,1.9993,2.0,2.0088,0,0,2.0021,2.0024,0,0,0,0,0,0,0,0,1.9622,1.9636,1.9758,1.9761,1.9764,1.9848,1.9832,1.994,1.9869,1.9829,1.9864,1.9861,1.9944,1.9955,1.9982,2.0093,2.0099,2.0022,2.0026,2.0029,2.0031,0,0,0,0,0,0,0,1.9615,1.9631,1.9791,1.9759,1.9763,1.9766,1.9778,1.9853,1.9898,1.9833,1.9833,1.9847,1.9946,1.9975,1.9985,2.0101,2.0022,2.0028,2.0032,2.0035,2.0292,2.0294,0,0,0,0,0,0,1.9604,1.9625,1.9787,1.9794,1.9686,1.9771,1.9785,1.9824,1.9897,1.9906,1.9849,1.9847,1.9964,1.9977,1.9989,2.0098,2.0029,2.0036,2.004,2.0289,2.0293,2.0295,0,0,0,0,0,0,1.9599,1.9618,1.9782,1.971,1.9731,1.9778,1.982,1.9827,1.9856,1.9909,1.9918,1.987,1.9963,1.9979,2.0063,2.0102,2.0039,2.0045,2.0286,2.029,2.0294,2.0315,0,0,0,0,0,0,1.9593,1.9616,1.9649,1.9711,1.9735,1.9853,1.9823,1.9831,1.9868,1.9867,1.9932,1.994,1.9962,2.0053,2.007,2.0111,2.0051,2.0283,2.0288,2.0293,2.0311,2.0319,2.0326,0,0,0,0,0,1.9585,1.965,1.9651,1.967,1.9777,1.9855,1.9869,1.9892,1.9871,1.9905,1.994,1.9938,2.0095,2.0061,2.0081,2.0124,2.0281,2.0287,2.0292,2.0307,2.0317,2.0325,0,0,0,0,0,0,1.9593,1.9659,1.966,1.9747,1.9795,1.9855,1.9898,1.9901,1.9957,1.9954,1.9981,1.9996,2.0079,2.011,2.0071,2.0214,2.0186,2.0196,2.019,2.02,2.0207,2.0198,2.0057,0,0,0,0,0,1.9605,1.9661,1.9717,1.9789,1.9813,1.9852,1.9887,1.99,1.9952,1.9972,2.0013,2.0064,2.0125,2.0164,2.0223,2.0316,2.033,2.0355,2.0363,2.0368,2.0377,2.0429,2.0441,2.0314,2.0314,2.0314,0,0,1.963,1.9673,1.9707,1.9791,1.983,1.989,1.9869,1.9932,1.9977,1.9983,2.0064,2.0095,2.0154,2.0243,2.0284,2.0271,2.0415,2.0376,2.038,2.0385,2.0436,2.0448,2.0459,2.0318,2.0318,2.0317,0,0,1.9706,1.9744,1.9808,1.9848,1.9907,1.9933,1.9949,2.0009,2.0029,2.0111,2.0117,2.0172,2.0276,2.0318,2.0353,2.0447,2.0448,2.0466,2.0504,2.0555,2.0565,2.0574,2.0608,2.0619,2.0474,2.0474,2.0474,0,1.973,1.9819,1.9842,1.9906,1.9943,1.995,2.0016,2.0054,2.013,2.0156,2.0141,2.0272,2.0313,2.0412,2.0435,2.0463,2.0482,2.0458,2.0561,2.057,2.0579,2.0612,2.0625,2.0476,2.0475,2.0475,2.0475,0,1.9846,1.9907,1.9953,2.0025,2.0068,2.0133,2.0167,2.0208,2.0218,2.0246,2.033,2.0379,2.0448,2.0473,2.0484,2.0574,2.0565,2.0555,2.0527,2.0593,2.0624,2.0636,2.0478,2.0477,2.0477,2.0476,0,0,1.9928,2.0013,2.003,2.0063,2.013,2.0179,2.0245,2.0312,2.0347,2.04,2.0456,2.0545,2.0537,2.0577,2.0593,2.0637,2.071,2.0623,2.0624,2.0637,2.0812,2.0819,2.0833,2.0711,2.0714,2.0716,2.0807,0,2.0011,2.0128,2.0151,2.0253,2.0311,2.0319,2.0377,2.0425,2.0454,2.0508,2.054,2.0603,2.0587,2.0611,2.0656,2.0691,2.0745,2.0685,2.0765,2.0768,2.0749,2.0849,2.0856,2.094,2.082,2.0822,2.0823,0,2.0123,2.0178,2.0285,2.0345,2.0371,2.0422,2.0486,2.0538,2.0593,2.0611,2.0656,2.0668,2.0739,2.0708,2.0807,2.0765,2.08,2.0823,2.0827,2.0834,2.0799,2.0859,2.0967,2.0979,2.0843,2.0841,2.084,0,2.0173,2.0274,2.0351,2.038,2.0452,2.0488,2.052,2.0573,2.0612,2.0669,2.0695,2.0759,2.0795,2.0845,2.0875,2.085,2.0971,2.0943,2.0989,2.0988,2.1013,2.1011,2.1127,2.1036,2.1036,2.1036,2.1035,0,2.0263,2.0328,2.0374,2.0422,2.0496,2.0523,2.0596,2.0628,2.0676,2.073,2.0743,2.0794,2.083,2.0888,2.0912,2.099,2.1006,2.1023,2.1028,2.1021,2.1019,2.1044,2.1038,2.1039,2.1038,2.1038,2.1037,0,2.033,2.0363,2.0448,2.051,2.0527,2.0579,2.0632,2.068,2.0709,2.0778,2.0796,2.0842,2.091,2.0945,2.103,2.1046,2.1135,2.1137,2.1115,2.1117,2.1161,2.1156,2.1297,2.1317,2.1213,2.1214,2.1215,0,2.0384,2.0434,2.0502,2.0539,2.0572,2.0632,2.0672,2.0702,2.0744,2.0812,2.0851,2.092,2.0976,2.1084,2.1126,2.1192,2.1195,2.124,2.1205,2.1197,2.1196,2.1192,2.1197,2.1246,2.1247,2.1248,2.1248,0,2.0478,2.0492,2.0549,2.0613,2.066,2.0712,2.0763,2.0793,2.0832,2.0878,2.0947,2.0991,2.1078,2.1146,2.1215,2.1249,2.1256,2.1259,2.1273,2.1266,2.1251,2.126,2.1132,2.1256,2.1255,2.1254,2.1254,2.1254,2.054,2.0585,2.064,2.0704,2.0745,2.0793,2.084,2.0876,2.0934,2.1006,2.1021,2.1095,2.1151,2.1244,2.1281,2.134,2.133,2.135,2.1356,2.136,2.1362,2.1243,2.1353,2.1352,2.1352,2.1352,2.1352,0,2.0633,2.0669,2.0728,2.0799,2.0849,2.0851,2.0908,2.095,2.1014,2.1066,2.1121,2.1201,2.1268,2.1316,2.1384,2.1422,2.1427,2.1439,2.1436,2.1444,2.1366,2.1347,2.1434,2.1434,2.1434,2.1434,2.1434,2.1434,2.0688,2.0765,2.0786,2.0885,2.0921,2.0993,2.1025,2.107,2.1111,2.12,2.1255,2.1286,2.1336,2.1409,2.147,2.1483,2.1507,2.1519,2.1532,2.1458,2.1449,2.1441,2.1423,2.1524,2.1524,2.1604,2.1605,2.1605]},{"header":{"parameterUnit":"m.s-1","parameterCategory":1,"la1":30.2991,"la2":30.254,"lo1":-89.0895,"lo2":-89.0444,"dy":0.0017,"dx":0.0017,"nx":28,"ny":28,"refTime":"2024-08-12T09:00:00:Z","depth":0,"parameterNumber":3,"parameterNumberName":"V-component_of_WINDS"},"data":[0,0,0,0,0,0,0,0,0,0,0,0,0,0,0,0,0,0,0,0,0,0,0,0,0,0,0,0,0,0,0,0,0,0,0,0,0,0,0,0,0,0,0,0,0,0,0,0,0,0,0,0,0,0,0,0,0,0,2.5754,2.5755,0,2.584,2.5841,2.5842,2.5862,2.5861,2.5861,2.586,2.5945,2.5948,2.595,0,0,0,0,0,0,0,0,0,0,0,0,0,2.5602,2.5604,2.5754,2.5755,2.5756,2.584,2.5841,2.5843,2.5862,2.5861,2.5861,2.586,2.5944,2.5947,2.5951,0,0,0,0,0,0,0,0,0,0,0,0,0,2.5676,2.5605,2.5754,2.5776,2.5779,2.584,2.5841,2.5843,2.5862,2.5861,2.586,2.586,2.5943,2.5947,2.5951,2.5995,0,0,2.5964,2.5966,0,0,0,0,0,0,0,0,2.5671,2.5681,2.5772,2.5775,2.5778,2.584,2.5819,2.5894,2.5862,2.5831,2.586,2.5859,2.591,2.5917,2.5935,2.5999,2.6003,2.5964,2.5967,2.5969,2.597,0,0,0,0,0,0,0,2.5666,2.5678,2.5788,2.5773,2.5777,2.578,2.579,2.5833,2.5874,2.5833,2.5835,2.5845,2.5912,2.5931,2.5937,2.6004,2.5964,2.5968,2.5971,2.5972,2.6104,2.6105,0,0,0,0,0,0,2.5658,2.5673,2.5786,2.5791,2.5722,2.5784,2.5794,2.5821,2.5874,2.5881,2.5846,2.5846,2.5924,2.5932,2.594,2.5993,2.5969,2.5973,2.5975,2.6103,2.6105,2.6106,0,0,0,0,0,0,2.5655,2.5668,2.5782,2.5733,2.5747,2.5787,2.5817,2.5823,2.5842,2.5883,2.589,2.5858,2.5924,2.5934,2.5981,2.5997,2.5975,2.5978,2.6102,2.6104,2.6105,2.61,0,0,0,0,0,0,2.565,2.5666,2.5685,2.5733,2.575,2.5823,2.5818,2.5825,2.585,2.5851,2.5897,2.5904,2.5924,2.5974,2.5985,2.6002,2.5982,2.6101,2.6103,2.6105,2.6099,2.6102,2.6103,0,0,0,0,0,2.5645,2.568,2.5686,2.5699,2.5774,2.5824,2.5833,2.5857,2.5851,2.5869,2.5895,2.5902,2.5993,2.5979,2.5991,2.601,2.61,2.6102,2.6104,2.6098,2.6101,2.6103,0,0,0,0,0,0,2.5633,2.5687,2.5694,2.5746,2.578,2.5827,2.585,2.586,2.5895,2.5894,2.5921,2.5931,2.5975,2.5997,2.598,2.6053,2.6046,2.6051,2.6037,2.604,2.6042,2.6036,2.5985,0,0,0,0,0,2.5636,2.5673,2.5718,2.576,2.5777,2.581,2.5833,2.5848,2.5884,2.5898,2.5928,2.5961,2.5996,2.602,2.6055,2.6102,2.6111,2.6121,2.6123,2.6124,2.6128,2.6152,2.6156,2.6113,2.6113,2.6113,0,0,2.5644,2.5678,2.57,2.5758,2.5786,2.5822,2.5822,2.5861,2.5887,2.5904,2.5949,2.5971,2.601,2.6056,2.6078,2.6076,2.6141,2.6127,2.6128,2.6131,2.6154,2.6158,2.6162,2.6114,2.6114,2.6114,0,0,2.5676,2.5706,2.5743,2.5771,2.5814,2.5835,2.5844,2.5889,2.5905,2.5951,2.5963,2.5993,2.6055,2.6082,2.6103,2.6142,2.6149,2.6152,2.6163,2.6186,2.6189,2.6192,2.6204,2.6208,2.6156,2.6156,2.6156,0,2.5679,2.5736,2.5761,2.5798,2.5823,2.5839,2.5875,2.5901,2.5952,2.5968,2.5964,2.6041,2.6068,2.6119,2.6129,2.6146,2.6155,2.6147,2.6187,2.619,2.6194,2.6205,2.621,2.6156,2.6156,2.6156,2.6156,0,2.5737,2.5775,2.58,2.5849,2.5876,2.5913,2.5942,2.5966,2.5978,2.5999,2.6044,2.6077,2.6118,2.6132,2.6144,2.6184,2.6181,2.6182,2.6175,2.6197,2.6208,2.6213,2.6156,2.6156,2.6156,2.6156,0,0,2.5765,2.5826,2.5835,2.5856,2.5903,2.5933,2.5968,2.601,2.6028,2.6063,2.6092,2.6143,2.6143,2.6167,2.6182,2.6203,2.6228,2.6201,2.6202,2.6204,2.6272,2.627,2.6275,2.6233,2.6234,2.6235,2.6268,0,2.5801,2.5868,2.5891,2.5945,2.5979,2.5994,2.6025,2.6056,2.6076,2.6106,2.6128,2.6163,2.6162,2.6177,2.6198,2.6221,2.6242,2.6219,2.6259,2.626,2.6249,2.6281,2.628,2.631,2.6273,2.6274,2.6274,0,2.5853,2.5888,2.5946,2.5986,2.6002,2.6029,2.6067,2.6097,2.6131,2.6144,2.617,2.6183,2.6219,2.621,2.6258,2.6242,2.6259,2.6273,2.6274,2.6279,2.6268,2.6285,2.632,2.6324,2.6282,2.6281,2.6281,0,2.5866,2.5927,2.5969,2.5987,2.6036,2.6055,2.6075,2.6109,2.6131,2.6164,2.6178,2.6214,2.6233,2.6259,2.6281,2.6273,2.6326,2.632,2.6336,2.6336,2.6347,2.6346,2.6384,2.6359,2.6359,2.6359,2.6359,0,2.5904,2.5938,2.5975,2.6001,2.6039,2.6063,2.6099,2.6121,2.615,2.6178,2.6193,2.6219,2.6246,2.6275,2.6292,2.6328,2.6337,2.6347,2.6351,2.6345,2.6344,2.6357,2.6355,2.636,2.636,2.636,2.636,0,2.5924,2.5951,2.5997,2.6039,2.605,2.6076,2.6111,2.6135,2.6155,2.6191,2.62,2.6231,2.6266,2.629,2.6334,2.6345,2.6383,2.6388,2.6372,2.6374,2.6389,2.6386,2.6436,2.6443,2.6414,2.6415,2.6415,0,2.5946,2.5973,2.6017,2.6038,2.6059,2.6092,2.6114,2.6138,2.6161,2.62,2.6219,2.6255,2.6285,2.6338,2.6364,2.6397,2.6401,2.6416,2.6406,2.6399,2.64,2.6398,2.6399,2.6418,2.6418,2.6418,2.6418,0,2.5982,2.5993,2.6026,2.6063,2.6089,2.6119,2.6149,2.6164,2.6193,2.6217,2.6253,2.6276,2.6321,2.6355,2.639,2.6409,2.6418,2.6421,2.6426,2.6421,2.641,2.6414,2.6375,2.642,2.6419,2.6419,2.6419,2.6419,2.6003,2.6027,2.6061,2.6096,2.6121,2.6148,2.6172,2.6195,2.6226,2.6265,2.6276,2.6313,2.6343,2.6392,2.6411,2.6439,2.6437,2.6446,2.6447,2.6449,2.6448,2.6406,2.6445,2.6445,2.6445,2.6445,2.6445,0,2.6038,2.6061,2.6093,2.6134,2.6161,2.6167,2.62,2.6221,2.6254,2.6282,2.6311,2.635,2.6383,2.6411,2.6444,2.646,2.6465,2.6468,2.6467,2.6471,2.6448,2.6439,2.6464,2.6464,2.6464,2.6464,2.6464,2.6464,2.606,2.6099,2.6114,2.6165,2.6187,2.6224,2.6241,2.6265,2.6288,2.6332,2.6359,2.6377,2.6404,2.6439,2.6469,2.6476,2.6487,2.6489,2.6496,2.6475,2.6472,2.647,2.6462,2.6491,2.6491,2.6517,2.6517,2.6517]}]]